Simultaneous Nadir Overpasses (SNOs) Predictions

Prediction of SNOs between GOES-15 and METOP-A Satellite Orbit:

Table of predicted SNOs for the next 14.0 days since TLE Epoch: 3/29/2013
Index Date Time (GOES-15) GOES-15 Lat,Lon METOP-A Lat,Lon Distance(km) Time Diff (sec)
1 03/30/2013 18:44:50 0.01,-135.06 0.94,-139.29 480.94 80
2 03/31/2013 18:26:52 0.01,-135.03 -0.14,-134.29 84.14 80
3 04/02/2013 06:43:14 -0.00,-135.00 -0.89,-138.89 443.87 80
4 04/03/2013 06:25:16 -0.00,-134.96 0.26,-133.90 120.76 80
5 04/04/2013 18:41:30 0.00,-134.88 0.81,-138.46 408.41 80
6 04/05/2013 18:23:32 0.00,-134.84 -0.33,-133.48 156.24 80
7 04/07/2013 06:39:54 -0.00,-134.80 -0.74,-138.06 372.05 80
8 04/08/2013 06:21:56 -0.00,-134.76 0.40,-133.08 192.41 80
9 04/09/2013 18:38:09
